User: anonymous   Login
Location: Unspecified
(0.0000°N, 0.0000°E)
Time: 20:42:40
(UTC+00:00)
Language:

STARLINK-32842 - Orbit

View from above orbital plane
View from above orbital plane
View from above satellite
View from above satellite

Ground track
Ground track

The orbit is defined by the following mean orbital elements,

1 62822U          26145.46422602 +.00000000 +00000-0 +60868-3 0 00008
2 62822  53.1585 312.9313 0001598 107.6908 252.4267 15.30216317    02
Epoch (UTC): 25 May 2026 11:08:29
Eccentricity: 0.0001598
inclination: 53.1585°
perigee height: 474 km
apogee height: 476 km
right ascension of ascending node: 312.9313°
argument of perigee: 107.6908°
revolutions per day: 15.30216317
mean anomaly at epoch: 252.4267°

The dashed part of the orbit path shows where the satellite is in the earth's shadow,  

DLR